Regional Weather Roundup
Issued by NWS Newport/Morehead, NC

Home | Current Version | Previous Version | Text Only | Print | Product List | Glossary On
Versions: 1 2 3 4 5 6 7 8 9 10 11 12 13 14 15 16 17 18 19 20 21 22 23 24 25 26 27 28 29 30 31 32 33 34 35 36 37 38 39 40 41 42 43 44 45 46 47 48 49 50
000
ASUS42 KMHX 232022
RWRMHX
WEATHER ROUNDUP FOR EASTERN NORTH CAROLINA
NATIONAL WEATHER SERVICE NEWPORT/MOREHEAD CITY NC
400 PM EDT WED APR 23 2014

NOTE: "FAIR" INDICATES FEW OR NO CLOUDS BELOW 12,000 FEET
WITH NO SIGNIFICANT WEATHER AND/OR OBSTRUCTIONS TO VISIBILITY

NCZ015>017-031-032-045>047-102-103-232100-
NORTH COAST

CITY           SKY/WX    TMP DP  RH WIND       PRES   REMARKS
EDENTON        SUNNY     70  35  27 NW13G24   29.79R
ELIZABETH CITY SUNNY     70  35  27 NW18      29.77
KITTY HAWK     CLEAR     60  37  43 NE7       29.78S
MANTEO         SUNNY     61  38  43 NE12      29.79R

$$

NCZ045>047-081-094-103-104-232100-
CENTRAL COAST

CITY           SKY/WX    TMP DP  RH WIND       PRES   REMARKS
FRISCO         MOSUNNY   62  39  42 NE10G17   29.79S
SWANQUARTER      N/A     70 N/A N/A W9G20     29.74S

$$

NCZ095-097-098-100-101-232100-
SOUTHERN COAST

CITY           SKY/WX    TMP DP  RH WIND       PRES   REMARKS
BEAUFORT       SUNNY     68  54  60 SW8       29.78S
CEDAR ISLAND     N/A     64 N/A N/A NE8       29.82S
JACKSONVILLE   SUNNY     75  35  23 NW16G23   29.79S
NEWPORT          N/A     73  34  23 NW12        N/A
PINEY ISLAND   CLEAR     68  53  58 NE6       29.78S
WILMINGTON     SUNNY     81  31  16 NW16G23   29.78S


$$

NCZ011>013-027>030-043-044-078>080-089-090>093-098-232100-
COASTAL PLAIN

CITY           SKY/WX    TMP DP  RH WIND       PRES   REMARKS
AHOSKIE        SUNNY     68  35  29 N8        29.80S
CLINTON        SUNNY     74  36  25 NW12      29.82S
ELIZABETHTOWN  SUNNY     78  33  19 W10       29.80F
GOLDSBORO      SUNNY     72  28  20 N16G23    29.80S
GREENVILLE     SUNNY     72  34  25 NW10G18   29.83S
HAVELOCK       SUNNY     74  35  24 W15       29.79S
KENANSVILLE    SUNNY     72  28  19 NW12G18   29.82S
KINSTON        SUNNY     72  30  21 NW17      29.81S
NEW BERN       SUNNY     75  37  25 N15G21    29.79F
RICHLANDS      SUNNY     73  70  88 W14G21    29.80S
ROANOKE RAPIDS NOT AVBL
ROCKY MOUNT    SUNNY     71  31  22 NW14G21   29.82S
WASHINGTON     SUNNY     73  25  16 NW13      29.79S
WHITEVILLE     SUNNY     78  32  19 NW5       29.80S

$$

AMZ130-135-150-152-154-156-158-170-250-252-270-ANZ085-086-088-633-658-670-232100-
MARINE OBSERVATIONS

STATION/POSITION TIME  TEMP    WIND        PRES    WAVE   SWELL
                       AIR SEA DIR/SP/G            HT/PER HT/PER
                 (UTC) (F)     (DEG/KT/KT) (MB)    (FT/S) (FT/S)
CHESAPEAKE LIGHT 2000   55     340/ 19/ 20 1008.7
BUOY 44014       2000   51 49  340/ 14/ 17 1007.6    4/ 5   2/ 8
DUCK             2000   55 51   60/  7/ 10 1007.7
2E DUCK          2000      51                N/A     3/ 8
OREGON INLET     2000   56 57   30/  7/ 12 1008.3
BUOY 44095       2000      51                N/A     4/ 8   2/17
HATTERAS CG      2000   58 60   70/  7/ 10 1009.0
DIAMOND BUOY     2000   61 76   10/ 10/ 14 1008.2    5/ 7   5/ 7
CAPE LOOKOUT     2000   63     120/  7/  7 1008.5
BEAUFORT LAB     2000   64 61  160/  6/  9 1007.8
30 SE NEW RIVER  2000   69 71  270/  4/  6 1009.0    3/ 5   3/ 5
5 SE WRIGHTSVILL 2000   66 62  190/  8/ 10 1008.3
FRYING PAN BUOY  2000   69 69  240/ 10/ 12 1008.6    3/ 8   2/ 8
BUOY 41001       NOT AVBL
BUOY 41002       NOT AVBL
BUOY 41004       2000   67 68  230/ 10/ 10 1009.7    2/ 8   2/ 8

$$



USA.gov is the U.S. government's official web portal to all federal, state and local government web resources and services.